Погода в Пеклине

Россия / Брянская область     53°33′01″N   33°31′14″E
темп.,
°C
ветер,
м/с
пор.,
м/с
влажн.,
%
обл.,
%
осадки,
мм/ч
давл.,
гПа
погр.,
м
11 мая, вт
вт1100:00+6св35830 0.0 102666
03:00+4ссв37820 0.0 1026117
06:00+5ссв310810 0.0 1026218
09:00+12св59640 0.0 1025497
12:00+17св57550 0.0 1023759
15:00+19св57555 0.0 10221093
18:00+19всв58680 0.0 10221093
21:00+13в3109498 0.2 1023252
12 мая, ср
ср1200:00+9вюв4108976 0.0 1024367
03:00+7вюв311950 0.0 1025361
06:00+6в28930 0.0 1025264
09:00+11в466957 0.0 1025686
12:00+15всв4654100 0.0 10231651
15:00+14всв4560100 0.1 10201322
18:00+10всв4683100 0.2 1018359
21:00+8вюв3895100 0.3 1017242
13 мая, чт
чт1300:00+6в4119695 0.0 1016288
03:00+8в51394100 0.0 1014640
06:00+8вюв5139318 1.1 1014729
09:00+10юв61284100 1.1 10141090
12:00+12ююв5863100 0.1 10141460
15:00+14ю475443 0.1 10141731
18:00+15ю3660100 0.0 10131297
21:00+9ю118261 0.0 101410
14 мая, пт
пт1400:00+8юв3389100 0.0 101452
03:00+8вюв3789100 0.0 1014132
06:00+10вюв41189100 0.0 1013265
09:00+11в399486 0.9 1012268
12:00+20юв697067 0.6 10101241
15:00+20ю58745 3.6 10091171
18:00+19ю488295 1.5 1009802
21:00+15ю229343 1.6 100938
15 мая, сб
сб1500:00+13ю22955 0.1 100919
03:00+12юв229599 0.4 100824
06:00+12юв25975 0.0 1008106
09:00+16ююз46836 0.1 1007468
12:00+20юз566277 0.5 10071333
15:00+20зюз556326 1.2 10071357
18:00+17зюз467988 1.5 1008739
21:00+13юз35965 4.2 1008100